Flag for Faroe Islands Weather past 2 weeks in Tórshavn, Faroe Islands, Faroe Islands

Now
39 °F

Sprinkles. Overcast.


Feels Like: 30 °F
Forecast: 44 / 51 °F
Wind: 18 mph from Northwest

Location: Soervaag / Vagar

Current Time: Oct 21, 2014 at 7:43:19 PM

Latest Report: Oct 21, 2014 at 6:50 PM


Visibility: N/A

Pressure: 29.50 "Hg

Humidity: 75%

Dew point: 32 °F

Location of TórshavnLocation

Historic Weather in Tórshavn — Graph

°F

Tórshavn temperature yesterday

Maximum temperature yesterday: 50 °F (at 3:50 PM)
Minimum temperature yesterday: 45 °F (at 6:20 AM)
Average temperature yesterday: 47 °F

Past Weeks' High & Low Weather Summary

 TemperatureHumidityPressure
High54 °F (Oct 7, 3:20 PM)100% (Oct 6, 10:20 PM)30.07 "Hg (Oct 6, 10:20 PM)
Low36 °F (Oct 13, 4:50 AM)50% (Oct 7, 7:20 PM)28.97 "Hg (Oct 19, 9:50 AM)
Average46 °F83%29.61 "Hg
* Reported Oct 6 6:20 PM — Oct 21 6:50 PM, Tórshavn, Weather by CustomWeather, © 2014

Note: Actual official high and low records may vary slightly from our data, if they occured in-between our weather recording intervals... More about our weather records

Advertising

Tórshavn weather history for previous 24 hours

 ConditionsComfort  
Time TempWeatherWind HumidityBarometerVisibility
6:50 PM
Oct 21
39 °FSprinkles. Overcast.18 mph75%29.50 "HgN/A
6:20 PM39 °FSprinkles. Overcast.20 mph75%29.47 "HgN/A
5:50 PM39 °FDrizzle. Partly sunny.23 mph70%29.47 "HgN/A
5:20 PM41 °FPartly sunny.17 mph61%29.45 "HgN/A
4:50 PM41 °FOvercast.17 mph66%29.45 "HgN/A
4:20 PM39 °FSprinkles. Partly sunny.14 mph70%29.42 "HgN/A
3:50 PM39 °FPartly sunny.16 mph65%29.42 "HgN/A
3:20 PM39 °FPartly sunny.21 mph61%29.42 "HgN/A
2:50 PM39 °FPartly sunny.21 mph61%29.39 "HgN/A
2:20 PM41 °FPartly sunny.24 mph57%29.39 "HgN/A
1:50 PM39 °FPartly sunny.24 mph61%29.36 "HgN/A
1:20 PM39 °FOvercast.23 mph61%29.33 "HgN/A
12:50 PM37 °FSprinkles. Partly sunny.24 mph65%29.33 "HgN/A
12:20 PM37 °FSprinkles. Partly sunny.29 mph70%29.30 "HgN/A
11:50 AM37 °FDrizzle. Partly sunny.29 mph75%29.30 "HgN/A
11:20 AM37 °FDrizzle. Overcast.24 mph81%29.27 "Hg4 mi
10:50 AM39 °FPartly sunny.32 mph70%29.24 "HgN/A
10:20 AM39 °FSprinkles. Passing clouds.41 mph75%29.21 "HgN/A
9:50 AM39 °FSprinkles. Passing clouds.40 mph87%29.18 "Hg5 mi
9:20 AM39 °FRain showers. Passing clouds.39 mph93%29.12 "Hg2 mi
8:50 AM41 °FRain showers. Passing clouds.30 mph93%29.09 "Hg5 mi
8:20 AM45 °FPassing clouds.16 mph76%29.06 "HgN/A
7:50 AM45 °FPassing clouds.14 mph76%29.06 "HgN/A
7:20 AM41 °FSprinkles. Passing clouds.7 mph93%29.03 "HgN/A
6:50 AM41 °FLight rain. Passing clouds.8 mph93%29.03 "HgN/A
6:20 AM41 °FOvercast.3 mph87%29.00 "HgN/A
5:50 AM41 °FOvercast.No wind87%29.00 "HgN/A
5:20 AM41 °FPassing clouds.1 mph87%29.00 "HgN/A
4:50 AM41 °FPartly cloudy.No wind87%29.00 "HgN/A
4:20 AM41 °FOvercast.No wind87%28.97 "HgN/A
3:50 AM41 °FOvercast.1 mph87%29.00 "HgN/A
3:20 AM43 °FOvercast.2 mph81%29.00 "HgN/A
2:50 AM41 °FOvercast.2 mph87%29.00 "HgN/A
2:20 AM43 °FPassing clouds.2 mph81%29.00 "HgN/A
1:50 AM43 °FDrizzle. Overcast.1 mph81%29.00 "HgN/A
1:20 AM43 °FPassing clouds.5 mph76%29.03 "HgN/A
12:50 AM43 °FPassing clouds.5 mph76%29.03 "HgN/A
12:20 AM45 °FSprinkles. Passing clouds.9 mph71%29.03 "HgN/A
11:50 PM
Oct 20
45 °FSprinkles. Passing clouds.5 mph76%29.03 "HgN/A
11:20 PM45 °FSprinkles. Passing clouds.6 mph81%29.03 "HgN/A
10:50 PM45 °FMostly cloudy.8 mph81%29.06 "HgN/A
10:20 PM45 °FPassing clouds.8 mph87%29.06 "HgN/A
9:50 PM45 °FSprinkles. Passing clouds.12 mph93%29.06 "HgN/A
9:20 PM45 °FSprinkles. Passing clouds.12 mph93%29.06 "HgN/A
8:50 PM46 °FPassing clouds.10 mph93%29.06 "HgN/A
8:20 PM46 °FSprinkles. Passing clouds.8 mph93%29.06 "HgN/A
7:50 PM46 °FLow clouds.15 mph93%29.06 "HgN/A
7:20 PM48 °FSprinkles. Partly sunny.10 mph94%29.06 "Hg5 mi
Weather by CustomWeather, © 2014

See weather overviewHow to use our weather pages